Waterville, ME

11:28 PM EDT on October 20, 2017 (GMT -0400)
Waterville Lafleur

Weather History for KWVL - July, 2013

Change the Weather History Date:

Tuesday, July 23, 2013

  Actual Average Record
Temperature  
Mean Temperature 62 °F -  
Max Temperature 68 °F 82 °F 94 °F (1978)
Min Temperature 57 °F 56 °F 45 °F (1981)
Degree Days  
Heating Degree Days 2    
Growing Degree Days 12 (Base 50)    
Moisture  
Dew Point 61 °F    
Average Humidity 95    
Maximum Humidity 100    
Minimum Humidity 88    
Precipitation  
Precipitation 0.94 in - - ()
Sea Level Pressure  
Sea Level Pressure 29.67 in    
Wind  
Wind Speed 3 mph (North)    
Max Wind Speed 10 mph    
Max Gust Speed -    
Visibility 8 miles    
Events      
Averages and records for this station are not official NWS values.
T = Trace of Precipitation, MM = Missing Value Source: NWS Daily Summary

Daily Weather History Graph

Daily Weather History Graph

Search for Another Location

Airport or City:

Trip Planner

Search our weather history database for the weather conditions in past years. The results will help you decide how hot, cold, wet, or windy it might be!

Date:

Astronomy

Jul. 23, 2013 Rise Set
Actual Time 5:15 AM EDT 8:13 PM EDT
Civil Twilight 4:41 AM EDT 8:48 PM EDT
Nautical Twilight 3:57 AM EDT 9:32 PM EDT
Astronomical Twilight 3:04 AM EDT 10:23 PM EDT
Moon 8:33 PM EDT (7/23) 6:25 AM EDT (7/23)
Length of Visible Light 16h 06m
Length of Day
14h 57m
Full, 99% of the Moon is Illuminated
Jul 23
Full
Jul 29
Last Quarter
Aug 6
New
Aug 14
First Quarter
Aug 20
Full

Hourly Weather History & Observations

Time (EDT) Temp. Dew Point Humidity Pressure Visibility Wind Dir Wind Speed Gust Speed Precip Events Conditions
12:15 AM 57.2 °F 55.4 °F 94% 29.90 in 10.0 mi Calm Calm - N/A   Clear
12:35 AM 57.2 °F 55.4 °F 94% 29.89 in 10.0 mi Calm Calm - N/A   Clear
12:55 AM 57.2 °F 55.4 °F 94% 29.90 in 10.0 mi Calm Calm - N/A   Clear
1:15 AM 59.0 °F 55.4 °F 88% 29.89 in 10.0 mi Calm Calm - N/A   Clear
1:35 AM 59.0 °F 57.2 °F 94% 29.88 in 10.0 mi Calm Calm - N/A   Clear
1:55 AM 59.0 °F 57.2 °F 94% 29.88 in 10.0 mi Calm Calm - N/A   Clear
2:15 AM 59.0 °F 57.2 °F 94% 29.86 in 10.0 mi Calm Calm - N/A   Clear
2:35 AM 59.0 °F 55.4 °F 88% 29.85 in 10.0 mi Calm Calm - N/A   Clear
2:55 AM 59.0 °F 57.2 °F 94% 29.85 in 10.0 mi Calm Calm - N/A   Clear
3:15 AM 59.0 °F 57.2 °F 94% 29.85 in 10.0 mi Calm Calm - N/A   Clear
3:35 AM 59.0 °F 57.2 °F 94% 29.84 in 10.0 mi Calm Calm - N/A   Clear
3:55 AM 59.0 °F 57.2 °F 94% 29.84 in 10.0 mi Calm Calm - N/A   Clear
4:35 AM 59.0 °F 57.2 °F 94% 29.83 in 10.0 mi Calm Calm - N/A   Partly Cloudy
4:55 AM 59.0 °F 57.2 °F 94% 29.82 in 10.0 mi Calm Calm - N/A   Mostly Cloudy
5:15 AM 59.0 °F 57.2 °F 94% 29.81 in 10.0 mi NNE 3.5 mph - N/A   Overcast
5:35 AM 59.0 °F 57.2 °F 94% 29.81 in 10.0 mi NNE 3.5 mph - N/A   Overcast
5:55 AM 59.0 °F 57.2 °F 94% 29.80 in 9.0 mi NNE 4.6 mph - N/A   Overcast
6:15 AM 59.0 °F 57.2 °F 94% 29.79 in 1.8 mi NNE 5.8 mph - 0.01 in   Overcast
6:35 AM 59.0 °F 57.2 °F 94% 29.78 in 0.5 mi NNE 5.8 mph - 0.03 in   Overcast
6:55 AM 60.8 °F 59.0 °F 94% 29.77 in 3.0 mi North 5.8 mph - 0.05 in   Overcast
7:15 AM 60.8 °F 59.0 °F 94% 29.77 in 3.0 mi NNE 4.6 mph - 0.08 in   Overcast
7:35 AM 60.8 °F 59.0 °F 94% 29.76 in 5.0 mi North 5.8 mph - 0.17 in   Overcast
7:55 AM 60.8 °F 59.0 °F 94% 29.75 in 6.0 mi North 6.9 mph - 0.20 in   Overcast
8:15 AM 60.8 °F 59.0 °F 94% 29.74 in 5.0 mi NNE 5.8 mph - 0.03 in   Overcast
8:35 AM 60.8 °F 59.0 °F 94% 29.73 in 5.0 mi North 5.8 mph - 0.10 in   Overcast
8:55 AM 60.8 °F 59.0 °F 94% 29.72 in 7.0 mi NNE 6.9 mph - 0.19 in   Overcast
9:15 AM 60.8 °F 60.8 °F 100% 29.69 in 8.0 mi NNE 10.4 mph - 0.08 in   Overcast
9:35 AM 60.8 °F 60.8 °F 100% 29.71 in 5.0 mi West 6.9 mph - 0.25 in   Overcast
9:55 AM 60.8 °F 60.8 °F 100% 29.68 in 10.0 mi NNE 8.1 mph - 0.32 in   Overcast
10:15 AM 60.8 °F 60.8 °F 100% 29.67 in 10.0 mi NNE 6.9 mph - 0.02 in   Mostly Cloudy
10:35 AM 62.6 °F 60.8 °F 94% 29.67 in 8.0 mi NNW 5.8 mph - 0.03 in   Overcast
10:55 AM 62.6 °F 60.8 °F 94% 29.65 in 8.0 mi North 5.8 mph - 0.06 in   Overcast
11:15 AM 62.6 °F 60.8 °F 94% 29.64 in 8.0 mi NNE 6.9 mph - 0.01 in   Overcast
11:35 AM 62.6 °F 62.6 °F 100% 29.64 in 10.0 mi NE 5.8 mph - 0.02 in   Overcast
11:55 AM 62.6 °F 60.8 °F 94% 29.64 in 10.0 mi West 3.5 mph - 0.03 in   Overcast
12:15 PM 62.6 °F 62.6 °F 100% 29.64 in 7.0 mi NW 5.8 mph - 0.04 in   Overcast
12:35 PM 64.4 °F 62.6 °F 94% 29.62 in 10.0 mi NNW 8.1 mph - 0.05 in   Overcast
12:55 PM 64.4 °F 62.6 °F 94% 29.61 in 9.0 mi NNW 5.8 mph - 0.05 in   Overcast
1:15 PM 66.2 °F 64.4 °F 94% 29.60 in 10.0 mi North 9.2 mph - N/A   Overcast
1:35 PM 64.4 °F 62.6 °F 94% 29.59 in 6.0 mi North 6.9 mph - 0.01 in   Overcast
1:55 PM 64.4 °F 64.4 °F 100% 29.58 in 3.0 mi NNE 4.6 mph - 0.04 in   Overcast
2:15 PM 64.4 °F 64.4 °F 100% 29.57 in 4.0 mi NNE 6.9 mph - N/A   Overcast
2:35 PM 66.2 °F 64.4 °F 94% 29.57 in 7.0 mi North 5.8 mph - N/A   Overcast
2:55 PM 66.2 °F 64.4 °F 94% 29.57 in 9.0 mi NNE 5.8 mph - N/A   Overcast
3:15 PM 66.2 °F 64.4 °F 94% 29.57 in 5.0 mi North 3.5 mph - N/A   Overcast
3:35 PM 66.2 °F 64.4 °F 94% 29.56 in 2.0 mi NNE 4.6 mph - N/A   Overcast
3:55 PM 66.2 °F 64.4 °F 94% 29.56 in 10.0 mi Calm Calm - N/A   Overcast
4:15 PM 68.0 °F 64.4 °F 88% 29.55 in 10.0 mi NE 3.5 mph - N/A   Overcast
4:35 PM 66.2 °F 64.4 °F 94% 29.54 in 10.0 mi North 5.8 mph - N/A   Overcast
4:55 PM 66.2 °F 64.4 °F 94% 29.54 in 10.0 mi North 5.8 mph - N/A   Overcast
5:35 PM 66.2 °F 64.4 °F 94% 29.54 in 10.0 mi North 4.6 mph - N/A   Overcast
5:55 PM 66.2 °F 64.4 °F 94% 29.53 in 10.0 mi NNE 3.5 mph - N/A   Overcast
6:15 PM 66.2 °F 64.4 °F 94% 29.52 in 10.0 mi NNE 3.5 mph - N/A   Overcast
6:35 PM 66.2 °F 64.4 °F 94% 29.52 in 10.0 mi NNE 4.6 mph - N/A   Overcast
6:55 PM 66.2 °F 64.4 °F 94% 29.52 in 9.0 mi NNE 4.6 mph - N/A   Overcast
7:15 PM 66.2 °F 64.4 °F 94% 29.53 in 10.0 mi NNE 4.6 mph - N/A   Overcast
7:35 PM 66.2 °F 64.4 °F 94% 29.53 in 10.0 mi NW 4.6 mph - N/A   Overcast
7:55 PM 66.2 °F 64.4 °F 94% 29.53 in 10.0 mi NNW 4.6 mph - N/A   Overcast
8:15 PM 66.2 °F 64.4 °F 94% 29.54 in 10.0 mi NW 4.6 mph - N/A   Overcast
8:35 PM 66.2 °F 64.4 °F 94% 29.53 in 10.0 mi NW 5.8 mph - N/A   Overcast
8:55 PM 66.2 °F 64.4 °F 94% 29.52 in 10.0 mi NNW 3.5 mph - N/A   Mostly Cloudy
9:35 PM 66.2 °F 64.4 °F 94% 29.53 in 10.0 mi Calm Calm - N/A   Scattered Clouds
9:55 PM 64.4 °F 64.4 °F 100% 29.54 in 10.0 mi Calm Calm - N/A   Clear
10:15 PM 64.4 °F 64.4 °F 100% 29.54 in 10.0 mi Calm Calm - N/A   Clear
10:35 PM 64.4 °F 62.6 °F 94% 29.53 in 1.0 mi Calm Calm - N/A   Clear
10:55 PM 62.6 °F 62.6 °F 100% 29.53 in 10.0 mi West 4.6 mph - N/A   Clear
11:15 PM 64.4 °F 62.6 °F 94% 29.54 in 10.0 mi Calm Calm - N/A   Clear
11:35 PM 62.6 °F 62.6 °F 100% 29.54 in 3.0 mi Calm Calm - N/A   Clear
11:55 PM 62.6 °F 60.8 °F 94% 29.54 in 10.0 mi Calm Calm - N/A   Clear